Regional Weather Roundup
Issued by NWS Northern Indiana

Home | Current Version | Previous Version | Graphics & Text | Print | Product List | Glossary On
Versions: 1 2 3 4 5 6 7 8 9 10 11 12 13 14 15 16 17 18 19 20 21 22 23 24 25 26 27 28 29 30 31 32 33 34 35 36 37 38 39 40 41 42 43 44 45 46 47 48 49 50
000
ASUS43 KIWX 101610
RWRIWX

KIWX WEATHER ROUNDUP
NATIONAL WEATHER SERVICE NORTHERN INDIANA
1100 AM EST WED FEB 10 2016

NOTE: "FAIR" INDICATES FEW OR NO CLOUDS BELOW 12,000 FEET WITH NO
SIGNIFICANT WEATHER AND/OR OBSTRUCTIONS TO VISIBILITY.

* THESE STATIONS ARE NOT UNDER NWS QUALITY CONTROL. THEY ALSO MAY NOT
  REPORT WEATHER SUCH AS PRECIPITATION OR FOG.

INZ001>027-101700-
NORTHERN INDIANA

CITY           SKY/WX    TMP DP  RH WIND       PRES   REMARKS
GARY*          PTSUNNY   18   1  49 NW17      30.05R WCI   2
VALPARAISO     CLOUDY    15   6  67 W15       30.01R WCI   0
MICHIGAN CITY* LGT SNOW  18  12  79 NW12G20   30.00R WCI   5
LAPORTE*       LGT SNOW  19  13  77 W15       29.99R WCI   4
KNOX*          SUNNY     14   7  73 W18       30.00R WCI  -3
SOUTH BEND     LGT SNOW  18  13  80 W21       29.96R WCI   1
ELKHART*       FLURRIES  19  12  73 NW9       29.94R WCI   9
GOSHEN         CLOUDY    19  12  74 W17       29.93R WCI   4
MONTICELLO*    MOSUNNY   14   1  57 NW14      30.04R WCI  -1
LOGANSPORT*    SUNNY     14   3  62 W14G22    30.03R WCI  -1
ROCHESTER*     SUNNY     18   3  53 W10G17    29.99R WCI   6
WARSAW*        CLOUDY    18  10  73 W15       29.95R WCI   3
ANGOLA*        CLOUDY    19  12  73 NW15      29.87R WCI   5
FORT WAYNE     FLURRIES  20  11  68 W21       29.94R WCI   4
HUNTINGTON*    CLOUDY    14   5  67 W13G22    29.96R HAZE    WCI   0
PERU/GRISSOM   SUNNY     13   6  72 W17       29.99R WCI  -4
MARION*        CLOUDY    13   1  58 W17       30.00R WCI  -3

$$
INZ028>050-101700-
CENTRAL INDIANA

CITY           SKY/WX    TMP DP  RH WIND       PRES   REMARKS
LAFAYETTE      MOSUNNY   13   5  70 NW13      30.07R WCI  -2
KOKOMO*        PTSUNNY   14   5  67 W17       30.01R WCI  -3
MUNCIE*        CLOUDY    15   7  70 W16       29.99R WCI  -1
INDIANAPOLIS   PTSUNNY   14   4  64 W17       30.05R WCI  -3

$$
MIZ043>046-050>051-056>058-064>065-071>073-077>080-101700-
SOUTHWEST LOWER MICHIGAN

CITY           SKY/WX    TMP DP  RH WIND       PRES   REMARKS
BATTLE CREEK   CLOUDY    19   8  62 NW14      29.87R WCI   6
BENTON HARBOR  CLOUDY    20   8  60 NW15G24   29.95S WCI   6
COLDWATER*     CLOUDY    20  13  74 NW10      29.88R WCI   8
HILLSDALE*     LGT SNOW  19  12  74 NW12G23   29.84R WCI   7
HOLLAND        LGT SNOW  19  12  74 NW10G20   29.93R WCI   7
GRAND RAPIDS   LGT SNOW  19  10  68 NW17      29.89R VSB 1   WCI   4
KALAMAZOO      LGT SNOW  19  11  70 NW15      29.89R WCI   5
STURGIS*       CLOUDY    19  11  70 NW16      29.89R WCI   5
THREE RIVERS*  FLURRIES  20  14  76 W15       29.91R WCI   7

$$
OHZ001>008-015>018-024>025-101700-
NORTHWEST OHIO

CITY           SKY/WX    TMP DP  RH WIND       PRES   REMARKS
DEFIANCE       CLOUDY    23  14  68 W9        29.90R WCI  13
FINDLAY        LGT SNOW  21  14  74 W21       29.88R WCI   5
TOLEDO EXPRESS CLOUDY    22  12  65 W18       29.86R WCI   7
TOLEDO METCALF CLOUDY    23  14  68 W16       29.87R WCI  10
LIMA           LGT SNOW  18  14  84 W17       29.90R FOG     WCI   3

$$
AND FOR LAKE MICHIGAN COASTAL AND OPEN LAKE BUOY OBSERVATIONS

STATION/POSITION TEMP    WIND        PRES    VSBY  WAVE
                 AIR SEA DIR/SP/G                  HT/PER
                 (F)     (DEG/KT/KT) (MB)    (MI)  (FT/S)
CALUMET HARBOR    13     290/ 11/ 15 1016.4R
MICHIGAN CITY     17     280/ 19/ 23   N/A
BURNS HARBOR      16     310/ 21     1016.3R
SAINT JOSEPH      21     310/ 17/ 20 1015.9R

$$
&&



USA.gov is the U.S. government's official web portal to all federal, state and local government web resources and services.